Menu Close Menu
Station Historical Data
Daily Summary for October 4, 2017 Units:  Metric    English   Both
« Previous Day
Next Day »
Daily Weekly Monthly Yearly Custom
  High: Low: Average:
Temperature: 25.9 °C 13.4 °C 19.2 °C
Dew Point: 14.9 °C 11.1 °C 13.1 °C
Humidity: 87% 47% 69%
Wind Speed: 20.9km/h 0km/h 7.7km/h
Wind Gust: 37km/h - -
Wind- - ENE
Pressure: 1031 hPa 1026 hPa -
Precipitation: 0 mm    
Historical Graphs
 
 
Tabular Data for October 4, 2017
Time Temperature Dew Point Pressure Wind Wind Speed Wind Gust Humidity Rainfall Rate (Hourly) solar Conditions
00:00 18.1 °C 12.6 °C 1031 hPa East 8 km/h 8 km/h 70% 0 mm WeatherDisplay:10.37 W/m2 CLR
00:05 18.1 °C 12.6 °C 1031 hPa East 8 km/h 8 km/h 70% 0 mm WeatherDisplay:10.37 W/m2 CLR
00:10 18.1 °C 12.6 °C 1030.7 hPa East 8 km/h 8 km/h 70% 0 mm WeatherDisplay:10.37 W/m2 CLR
00:15 18.1 °C 12.3 °C 1030.7 hPa East 4.8 km/h 8 km/h 69% 0 mm WeatherDisplay:10.37 W/m2 CLR
00:20 18 °C 12.4 °C 1031 hPa East 4.8 km/h 4.8 km/h 70% 0 mm WeatherDisplay:10.37 W/m2 CLR
00:25 17.9 °C 12.6 °C 1031 hPa East 4.8 km/h 4.8 km/h 71% 0 mm WeatherDisplay:10.37 W/m2 CLR
00:30 17.8 °C 12.4 °C 1031 hPa East 4.8 km/h 4.8 km/h 71% 0 mm WeatherDisplay:10.37 W/m2 CLR
00:35 17.7 °C 12.3 °C 1031 hPa East 4.8 km/h 4.8 km/h 71% 0 mm WeatherDisplay:10.37 W/m2 CLR
00:40 17.6 °C 12.2 °C 1031 hPa East 4.8 km/h 4.8 km/h 71% 0 mm WeatherDisplay:10.37 W/m2 CLR
00:50 17.4 °C 12.3 °C 1030.7 hPa East 4.8 km/h 4.8 km/h 72% 0 mm WeatherDisplay:10.37 W/m2 CLR
00:55 17.3 °C 12.2 °C 1030.7 hPa East 4.8 km/h 4.8 km/h 72% 0 mm WeatherDisplay:10.37 W/m2 CLR
01:00 17.2 °C 12.3 °C 1030.7 hPa East 4.8 km/h 4.8 km/h 73% 0 mm WeatherDisplay:10.37 W/m2 CLR
01:05 17.1 °C 12.2 °C 1030.7 hPa East 4.8 km/h 4.8 km/h 73% 0 mm WeatherDisplay:10.37 W/m2 CLR
01:10 17 °C 12.1 °C 1030.7 hPa East 4.8 km/h 4.8 km/h 73% 0 mm WeatherDisplay:10.37 W/m2 CLR
01:15 17 °C 12.1 °C 1030.7 hPa ENE 9.7 km/h 9.7 km/h 73% 0 mm WeatherDisplay:10.37 W/m2 CLR
01:20 17.2 °C 12.1 °C 1030.7 hPa ENE 9.7 km/h 9.7 km/h 72% 0 mm WeatherDisplay:10.37 W/m2 CLR
01:25 17.3 °C 11.9 °C 1030.7 hPa ENE 9.7 km/h 9.7 km/h 71% 0 mm WeatherDisplay:10.37 W/m2 CLR
01:30 17.3 °C 11.9 °C 1030.7 hPa ENE 9.7 km/h 9.7 km/h 71% 0 mm WeatherDisplay:10.37 W/m2 CLR
01:40 17.1 °C 12 °C 1030.7 hPa ENE 9.7 km/h 9.7 km/h 72% 0 mm WeatherDisplay:10.37 W/m2 CLR
01:45 17 °C 11.9 °C 1030.7 hPa ENE 9.7 km/h 9.7 km/h 72% 0 mm WeatherDisplay:10.37 W/m2 CLR
01:50 17.1 °C 12.2 °C 1030.7 hPa ENE 9.7 km/h 9.7 km/h 73% 0 mm WeatherDisplay:10.37 W/m2 CLR
01:55 17 °C 12.1 °C 1030.7 hPa ENE 9.7 km/h 9.7 km/h 73% 0 mm WeatherDisplay:10.37 W/m2 CLR
02:00 16.9 °C 12 °C 1030.7 hPa ENE 9.7 km/h 9.7 km/h 73% 0 mm WeatherDisplay:10.37 W/m2 CLR
02:05 16.8 °C 11.9 °C 1030.7 hPa ENE 9.7 km/h 9.7 km/h 73% 0 mm WeatherDisplay:10.37 W/m2 CLR
02:10 16.7 °C 12 °C 1030.7 hPa ENE 9.7 km/h 9.7 km/h 74% 0 mm WeatherDisplay:10.37 W/m2 CLR
02:15 16.6 °C 12.1 °C 1030.7 hPa ENE 4.8 km/h 9.7 km/h 75% 0 mm WeatherDisplay:10.37 W/m2 CLR
02:20 16.4 °C 12 °C 1030.7 hPa ENE 4.8 km/h 4.8 km/h 75% 0 mm WeatherDisplay:10.37 W/m2 CLR
02:25 16.3 °C 11.9 °C 1030.7 hPa ENE 4.8 km/h 4.8 km/h 75% 0 mm WeatherDisplay:10.37 W/m2 CLR
02:30 16.3 °C 12.1 °C 1030.7 hPa ENE 4.8 km/h 4.8 km/h 76% 0 mm WeatherDisplay:10.37 W/m2 CLR
02:35 16.2 °C 11.9 °C 1030.7 hPa ENE 4.8 km/h 4.8 km/h 76% 0 mm WeatherDisplay:10.37 W/m2 CLR
02:40 16.2 °C 11.9 °C 1030.7 hPa ENE 4.8 km/h 4.8 km/h 76% 0 mm WeatherDisplay:10.37 W/m2 CLR
02:45 16.1 °C 12.1 °C 1030.7 hPa ENE 4.8 km/h 4.8 km/h 77% 0 mm WeatherDisplay:10.37 W/m2 CLR
02:50 16 °C 12 °C 1030.7 hPa ENE 4.8 km/h 4.8 km/h 77% 0 mm WeatherDisplay:10.37 W/m2 CLR
02:55 16 °C 11.9 °C 1030.4 hPa ENE 4.8 km/h 4.8 km/h 77% 0 mm WeatherDisplay:10.37 W/m2 CLR
03:00 16.1 °C 11.9 °C 1030.4 hPa ENE 4.8 km/h 4.8 km/h 76% 0 mm WeatherDisplay:10.37 W/m2 CLR
03:05 16.2 °C 11.9 °C 1030.4 hPa ENE 4.8 km/h 4.8 km/h 76% 0 mm WeatherDisplay:10.37 W/m2 CLR
03:10 16.2 °C 11.9 °C 1030.4 hPa ENE 4.8 km/h 4.8 km/h 76% 0 mm WeatherDisplay:10.37 W/m2 CLR
03:15 16.1 °C 11.9 °C 1030.4 hPa East 4.8 km/h 4.8 km/h 76% 0 mm WeatherDisplay:10.37 W/m2 CLR
03:20 16.1 °C 11.8 °C 1030.4 hPa East 4.8 km/h 4.8 km/h 76% 0 mm WeatherDisplay:10.37 W/m2 CLR
03:25 16 °C 11.8 °C 1030.4 hPa East 4.8 km/h 4.8 km/h 76% 0 mm WeatherDisplay:10.37 W/m2 CLR
03:30 16 °C 11.8 °C 1030.4 hPa East 4.8 km/h 4.8 km/h 76% 0 mm WeatherDisplay:10.37 W/m2 CLR
03:40 16.2 °C 11.9 °C 1030.4 hPa East 4.8 km/h 4.8 km/h 76% 0 mm WeatherDisplay:10.37 W/m2 CLR
03:45 16.1 °C 11.9 °C 1030.4 hPa East 4.8 km/h 4.8 km/h 76% 0 mm WeatherDisplay:10.37 W/m2 CLR
03:50 16.1 °C 12 °C 1030.4 hPa East 4.8 km/h 4.8 km/h 77% 0 mm WeatherDisplay:10.37 W/m2 CLR
03:55 16 °C 11.9 °C 1030 hPa East 4.8 km/h 4.8 km/h 77% 0 mm WeatherDisplay:10.37 W/m2 CLR
04:00 15.9 °C 11.9 °C 1030.4 hPa East 4.8 km/h 4.8 km/h 77% 0 mm WeatherDisplay:10.37 W/m2 CLR
04:05 15.8 °C 11.8 °C 1030 hPa East 4.8 km/h 4.8 km/h 77% 0 mm WeatherDisplay:10.37 W/m2 CLR
04:10 15.8 °C 11.8 °C 1030 hPa East 4.8 km/h 4.8 km/h 77% 0 mm WeatherDisplay:10.37 W/m2 CLR
04:15 15.8 °C 11.6 °C 1030.4 hPa ENE 3.2 km/h 4.8 km/h 76% 0 mm WeatherDisplay:10.37 W/m2 FEW
04:20 15.8 °C 11.6 °C 1030 hPa NE 3.2 km/h 3.2 km/h 76% 0 mm WeatherDisplay:10.37 W/m2 FEW
04:25 15.7 °C 11.5 °C 1030 hPa NE 3.2 km/h 3.2 km/h 76% 0 mm WeatherDisplay:10.37 W/m2 FEW
04:30 15.7 °C 11.7 °C 1030 hPa NE 3.2 km/h 3.2 km/h 77% 0 mm WeatherDisplay:10.37 W/m2 FEW
04:35 15.6 °C 11.6 °C 1030 hPa NE 3.2 km/h 3.2 km/h 77% 0 mm WeatherDisplay:10.37 W/m2 FEW
04:40 15.6 °C 11.6 °C 1030 hPa NE 3.2 km/h 3.2 km/h 77% 0 mm WeatherDisplay:10.37 W/m2 FEW
04:45 15.5 °C 11.7 °C 1030 hPa NE 3.2 km/h 3.2 km/h 78% 0 mm WeatherDisplay:10.37 W/m2 FEW
04:50 15.4 °C 11.8 °C 1030 hPa NE 3.2 km/h 3.2 km/h 79% 0 mm WeatherDisplay:10.37 W/m2 FEW
04:55 15.3 °C 11.5 °C 1030.4 hPa NE 3.2 km/h 3.2 km/h 78% 0 mm WeatherDisplay:10.37 W/m2 FEW
05:00 15.2 °C 11.6 °C 1030.4 hPa NE 3.2 km/h 3.2 km/h 79% 0 mm WeatherDisplay:10.37 W/m2 FEW
05:10 15.1 °C 11.5 °C 1030.4 hPa NE 3.2 km/h 3.2 km/h 79% 0 mm WeatherDisplay:10.37 W/m2 FEW
05:15 15.1 °C 11.4 °C 1030.4 hPa ENE 3.2 km/h 3.2 km/h 79% 0 mm WeatherDisplay:10.37 W/m2 FEW
05:20 15 °C 11.6 °C 1030.4 hPa ENE 3.2 km/h 3.2 km/h 80% 0 mm WeatherDisplay:10.37 W/m2 FEW
05:25 14.8 °C 11.6 °C 1030.4 hPa ENE 3.2 km/h 3.2 km/h 81% 0 mm WeatherDisplay:10.37 W/m2 FEW
05:30 14.7 °C 11.5 °C 1030.4 hPa ENE 3.2 km/h 3.2 km/h 81% 0 mm WeatherDisplay:10.37 W/m2 FEW
05:40 14.6 °C 11.3 °C 1030.4 hPa ENE 3.2 km/h 3.2 km/h 81% 0 mm WeatherDisplay:10.37 W/m2 FEW
05:45 14.6 °C 11.5 °C 1030.4 hPa ENE 3.2 km/h 3.2 km/h 82% 0 mm WeatherDisplay:10.37 W/m2 FEW
05:50 14.5 °C 11.4 °C 1030.4 hPa ENE 3.2 km/h 3.2 km/h 82% 0 mm WeatherDisplay:10.37 W/m2 FEW
05:55 14.3 °C 11.5 °C 1030.4 hPa ENE 3.2 km/h 3.2 km/h 83% 0 mm WeatherDisplay:10.37 W/m2 FEW
06:00 14.3 °C 11.4 °C 1030.4 hPa ENE 3.2 km/h 3.2 km/h 83% 0 mm WeatherDisplay:10.37 W/m2 FEW
06:05 14.2 °C 11.4 °C 1030.4 hPa ENE 3.2 km/h 3.2 km/h 83% 0 mm WeatherDisplay:10.37 W/m2 FEW
06:10 14.2 °C 11.6 °C 1030.4 hPa ENE 3.2 km/h 3.2 km/h 84% 0 mm WeatherDisplay:10.37 W/m2 FEW
06:15 14.1 °C 11.4 °C 1030.4 hPa ENE 3.2 km/h 3.2 km/h 84% 0 mm WeatherDisplay:10.37 W/m2 FEW
06:20 14.1 °C 11.4 °C 1030.4 hPa ENE 3.2 km/h 3.2 km/h 84% 0 mm WeatherDisplay:10.37 W/m2 FEW
06:25 14 °C 11.5 °C 1030.4 hPa ENE 3.2 km/h 3.2 km/h 85% 0 mm WeatherDisplay:10.37 W/m2 FEW
06:30 13.9 °C 11.4 °C 1030.4 hPa ENE 3.2 km/h 3.2 km/h 85% 0 mm WeatherDisplay:10.37 W/m2 FEW
06:35 13.8 °C 11.3 °C 1030.4 hPa ENE 3.2 km/h 3.2 km/h 85% 0 mm WeatherDisplay:10.37 W/m2 FEW
06:40 13.8 °C 11.3 °C 1030.4 hPa ENE 3.2 km/h 3.2 km/h 85% 0 mm WeatherDisplay:10.37 W/m2 FEW
06:50 13.7 °C 11.4 °C 1030.4 hPa ENE 3.2 km/h 3.2 km/h 86% 0 mm WeatherDisplay:10.37 W/m2 FEW
06:55 13.7 °C 11.2 °C 1030.4 hPa ENE 3.2 km/h 3.2 km/h 85% 0 mm WeatherDisplay:10.37 W/m2 FEW
07:00 13.7 °C 11.3 °C 1030.4 hPa ENE 3.2 km/h 3.2 km/h 86% 0 mm WeatherDisplay:10.37 W/m2 FEW
07:05 13.6 °C 11.3 °C 1030.4 hPa ENE 3.2 km/h 3.2 km/h 86% 0 mm WeatherDisplay:10.37 W/m2 FEW
07:10 13.6 °C 11.3 °C 1030.4 hPa ENE 3.2 km/h 3.2 km/h 86% 0 mm WeatherDisplay:10.37 W/m2 FEW
07:15 13.6 °C 11.1 °C 1030.4 hPa ENE 4.8 km/h 4.8 km/h 85% 0 mm WeatherDisplay:10.37 W/m2 CLR
07:20 13.6 °C 11.3 °C 1030.4 hPa East 4.8 km/h 4.8 km/h 86% 0 mm WeatherDisplay:10.37 W/m2 CLR
07:25 13.6 °C 11.1 °C 1030.4 hPa East 4.8 km/h 4.8 km/h 85% 0 mm WeatherDisplay:10.37 W/m2 CLR
07:30 13.5 °C 11.2 °C 1030.4 hPa East 4.8 km/h 4.8 km/h 86% 0 mm WeatherDisplay:10.37 W/m2 CLR
07:35 13.5 °C 11.2 °C 1030.4 hPa East 4.8 km/h 4.8 km/h 86% 0 mm WeatherDisplay:10.37 W/m2 CLR
07:40 13.4 °C 11.2 °C 1030.4 hPa East 4.8 km/h 4.8 km/h 86% 0 mm WeatherDisplay:10.37 W/m2 CLR
07:45 13.4 °C 11.2 °C 1030.4 hPa East 4.8 km/h 4.8 km/h 86% 0 mm WeatherDisplay:10.37 W/m2 CLR
07:50 13.4 °C 11.1 °C 1030.4 hPa East 4.8 km/h 4.8 km/h 86% 0 mm WeatherDisplay:10.37 W/m2 CLR
07:55 13.4 °C 11.3 °C 1030.4 hPa East 4.8 km/h 4.8 km/h 87% 0 mm WeatherDisplay:10.37 W/m2 CLR
08:00 13.4 °C 11.3 °C 1030.4 hPa East 4.8 km/h 4.8 km/h 87% 0 mm WeatherDisplay:10.37 W/m2 CLR
08:05 13.4 °C 11.1 °C 1030.7 hPa East 4.8 km/h 4.8 km/h 86% 0 mm WeatherDisplay:10.37 W/m2 CLR
08:10 13.5 °C 11.2 °C 1030.7 hPa East 4.8 km/h 4.8 km/h 86% 0 mm WeatherDisplay:10.37 W/m2 CLR
08:15 13.6 °C 11.3 °C 1030.7 hPa ENE 1.6 km/h 4.8 km/h 86% 0 mm WeatherDisplay:10.37 W/m2 CLR
08:20 13.8 °C 11.4 °C 1030.7 hPa ENE 1.6 km/h 1.6 km/h 86% 0 mm WeatherDisplay:10.37 W/m2 CLR
08:25 13.9 °C 11.7 °C 1030.7 hPa ENE 1.6 km/h 1.6 km/h 86% 0 mm WeatherDisplay:10.37 W/m2 CLR
08:30 14.2 °C 11.7 °C 1030.7 hPa ENE 1.6 km/h 1.6 km/h 85% 0 mm WeatherDisplay:10.37 W/m2 CLR
08:35 14.4 °C 11.9 °C 1030.7 hPa ENE 1.6 km/h 1.6 km/h 85% 0 mm WeatherDisplay:10.37 W/m2 CLR
08:40 14.6 °C 11.9 °C 1030.7 hPa ENE 1.6 km/h 1.6 km/h 84% 0 mm WeatherDisplay:10.37 W/m2 CLR
08:45 14.9 °C 11.9 °C 1030.7 hPa ENE 1.6 km/h 1.6 km/h 82% 0 mm WeatherDisplay:10.37 W/m2 CLR
08:50 15.4 °C 11.9 °C 1030.7 hPa ENE 1.6 km/h 1.6 km/h 80% 0 mm WeatherDisplay:10.37 W/m2 CLR
08:55 15.7 °C 12.1 °C 1030.7 hPa ENE 1.6 km/h 1.6 km/h 79% 0 mm WeatherDisplay:10.37 W/m2 CLR
09:00 16 °C 12.2 °C 1031 hPa ENE 1.6 km/h 1.6 km/h 78% 0 mm WeatherDisplay:10.37 W/m2 CLR
09:05 16.3 °C 12.3 °C 1030.7 hPa ENE 1.6 km/h 1.6 km/h 77% 0 mm WeatherDisplay:10.37 W/m2 CLR
09:10 16.6 °C 12.3 °C 1030.7 hPa ENE 1.6 km/h 1.6 km/h 76% 0 mm WeatherDisplay:10.37 W/m2 CLR
09:15 16.8 °C 12.6 °C 1030.7 hPa ENE 8 km/h 8 km/h 76% 0 mm WeatherDisplay:10.37 W/m2 FEW
09:20 17.1 °C 12.6 °C 1030.7 hPa East 8 km/h 8 km/h 75% 0 mm WeatherDisplay:10.37 W/m2 FEW
09:25 17.3 °C 12.8 °C 1030.7 hPa East 8 km/h 8 km/h 75% 0 mm WeatherDisplay:10.37 W/m2 FEW
09:30 17.5 °C 13.1 °C 1030.7 hPa East 8 km/h 8 km/h 75% 0 mm WeatherDisplay:10.37 W/m2 FEW
09:35 17.7 °C 12.9 °C 1030.7 hPa East 8 km/h 8 km/h 74% 0 mm WeatherDisplay:10.37 W/m2 FEW
09:40 17.8 °C 12.9 °C 1031 hPa East 8 km/h 8 km/h 73% 0 mm WeatherDisplay:10.37 W/m2 FEW
09:45 18 °C 13.3 °C 1031 hPa East 8 km/h 8 km/h 74% 0 mm WeatherDisplay:10.37 W/m2 FEW
09:55 18.3 °C 13.6 °C 1031 hPa East 8 km/h 8 km/h 74% 0 mm WeatherDisplay:10.37 W/m2 FEW
10:00 18.6 °C 13.6 °C 1030.7 hPa East 8 km/h 8 km/h 73% 0 mm WeatherDisplay:10.37 W/m2 FEW
10:05 18.7 °C 13.7 °C 1030.7 hPa East 8 km/h 8 km/h 73% 0 mm WeatherDisplay:10.37 W/m2 FEW
10:10 18.8 °C 13.8 °C 1030.7 hPa East 8 km/h 8 km/h 73% 0 mm WeatherDisplay:10.37 W/m2 FEW
10:15 18.9 °C 13.7 °C 1030.7 hPa ENE 9.7 km/h 9.7 km/h 72% 0 mm WeatherDisplay:10.37 W/m2 FEW
10:20 19.1 °C 14.1 °C 1030.7 hPa ENE 9.7 km/h 9.7 km/h 73% 0 mm WeatherDisplay:10.37 W/m2 FEW
10:25 19.3 °C 14.1 °C 1031 hPa ENE 9.7 km/h 9.7 km/h 72% 0 mm WeatherDisplay:10.37 W/m2 FEW
10:30 19.4 °C 14.1 °C 1031 hPa ENE 9.7 km/h 9.7 km/h 71% 0 mm WeatherDisplay:10.37 W/m2 FEW
10:35 19.6 °C 14 °C 1031 hPa ENE 9.7 km/h 9.7 km/h 70% 0 mm WeatherDisplay:10.37 W/m2 FEW
10:40 19.7 °C 13.8 °C 1031 hPa ENE 9.7 km/h 9.7 km/h 69% 0 mm WeatherDisplay:10.37 W/m2 FEW
10:45 19.9 °C 14.1 °C 1031 hPa ENE 9.7 km/h 9.7 km/h 69% 0 mm WeatherDisplay:10.37 W/m2 FEW
10:50 20.2 °C 14.1 °C 1031 hPa ENE 9.7 km/h 9.7 km/h 68% 0 mm WeatherDisplay:10.37 W/m2 FEW
10:55 20.5 °C 13.9 °C 1031 hPa ENE 9.7 km/h 9.7 km/h 66% 0 mm WeatherDisplay:10.37 W/m2 FEW
11:00 20.8 °C 14.4 °C 1030.7 hPa ENE 9.7 km/h 9.7 km/h 67% 0 mm WeatherDisplay:10.37 W/m2 FEW
11:05 21.4 °C 14.8 °C 1030.7 hPa ENE 9.7 km/h 9.7 km/h 66% 0 mm WeatherDisplay:10.37 W/m2 FEW
11:10 21.7 °C 14.3 °C 1030.7 hPa ENE 9.7 km/h 9.7 km/h 63% 0 mm WeatherDisplay:10.37 W/m2 FEW
11:15 21.7 °C 14.4 °C 1030.7 hPa ENE 8 km/h 9.7 km/h 63% 0 mm WeatherDisplay:10.37 W/m2 FEW
11:20 22 °C 14.2 °C 1030.7 hPa East 8 km/h 8 km/h 61% 0 mm WeatherDisplay:10.37 W/m2 FEW
11:25 22.1 °C 14.2 °C 1030.7 hPa East 8 km/h 8 km/h 61% 0 mm WeatherDisplay:10.37 W/m2 FEW
11:30 22.2 °C 14.3 °C 1030.7 hPa East 8 km/h 8 km/h 61% 0 mm WeatherDisplay:10.37 W/m2 FEW
11:35 22.1 °C 14.4 °C 1030.7 hPa East 8 km/h 8 km/h 62% 0 mm WeatherDisplay:10.37 W/m2 FEW
11:40 22.2 °C 14.1 °C 1030.7 hPa East 8 km/h 12.9 km/h 60% 0 mm WeatherDisplay:10.37 W/m2 FEW
11:45 22.5 °C 14.6 °C 1030.7 hPa East 8 km/h 8 km/h 61% 0 mm WeatherDisplay:10.37 W/m2 FEW
11:50 22.8 °C 14.4 °C 1030.7 hPa East 8 km/h 8 km/h 59% 0 mm WeatherDisplay:10.37 W/m2 FEW
11:55 23.1 °C 14.6 °C 1030.4 hPa East 8 km/h 8 km/h 59% 0 mm WeatherDisplay:10.37 W/m2 FEW
12:00 23.4 °C 14.7 °C 1030.4 hPa East 8 km/h 8 km/h 58% 0 mm WeatherDisplay:10.37 W/m2 FEW
12:05 23.6 °C 14.6 °C 1030.4 hPa East 8 km/h 8 km/h 57% 0 mm WeatherDisplay:10.37 W/m2 FEW
12:10 23.6 °C 14.6 °C 1030.4 hPa East 8 km/h 8 km/h 57% 0 mm WeatherDisplay:10.37 W/m2 FEW
12:15 23.7 °C 14.7 °C 1030.4 hPa East 20.9 km/h 37 km/h 57% 0 mm WeatherDisplay:10.37 W/m2 FEW
12:20 23.7 °C 14.9 °C 1030.4 hPa East 20.9 km/h 37 km/h 58% 0 mm WeatherDisplay:10.37 W/m2 FEW
12:25 23.7 °C 14.7 °C 1030.4 hPa East 20.9 km/h 37 km/h 57% 0 mm WeatherDisplay:10.37 W/m2 FEW
12:30 23.8 °C 14.2 °C 1030.4 hPa East 20.9 km/h 37 km/h 55% 0 mm WeatherDisplay:10.37 W/m2 FEW
12:35 23.7 °C 14.1 °C 1030.4 hPa East 20.9 km/h 37 km/h 55% 0 mm WeatherDisplay:10.37 W/m2 FEW
12:40 23.6 °C 14.3 °C 1030 hPa East 20.9 km/h 37 km/h 56% 0 mm WeatherDisplay:10.37 W/m2 FEW
12:45 23.8 °C 14.2 °C 1030 hPa East 20.9 km/h 37 km/h 55% 0 mm WeatherDisplay:10.37 W/m2 FEW
12:50 23.8 °C 14.2 °C 1030 hPa East 20.9 km/h 37 km/h 55% 0 mm WeatherDisplay:10.37 W/m2 FEW
12:55 23.8 °C 13.9 °C 1030 hPa East 20.9 km/h 37 km/h 54% 0 mm WeatherDisplay:10.37 W/m2 FEW
13:00 23.9 °C 13.7 °C 1030 hPa East 20.9 km/h 37 km/h 53% 0 mm WeatherDisplay:10.37 W/m2 FEW
13:05 24 °C 13.8 °C 1029.7 hPa East 20.9 km/h 37 km/h 53% 0 mm WeatherDisplay:10.37 W/m2 FEW
13:10 24.1 °C 13.9 °C 1029.7 hPa East 20.9 km/h 37 km/h 53% 0 mm WeatherDisplay:10.37 W/m2 FEW
13:15 23.8 °C 13.7 °C 1029.7 hPa East 14.5 km/h 37 km/h 53% 0 mm WeatherDisplay:10.37 W/m2 SCT
13:20 23.9 °C 14.3 °C 1029.7 hPa East 14.5 km/h 14.5 km/h 55% 0 mm WeatherDisplay:10.37 W/m2 SCT
13:30 24.1 °C 14.2 °C 1029.3 hPa East 14.5 km/h 14.5 km/h 54% 0 mm WeatherDisplay:10.37 W/m2 SCT
13:35 24 °C 14.1 °C 1029.3 hPa East 14.5 km/h 14.5 km/h 54% 0 mm WeatherDisplay:10.37 W/m2 SCT
13:40 24.2 °C 13.7 °C 1029 hPa East 14.5 km/h 14.5 km/h 52% 0 mm WeatherDisplay:10.37 W/m2 SCT
13:50 24.7 °C 13.9 °C 1029 hPa East 14.5 km/h 14.5 km/h 51% 0 mm WeatherDisplay:10.37 W/m2 SCT
13:55 24.6 °C 13.4 °C 1028.7 hPa East 14.5 km/h 14.5 km/h 50% 0 mm WeatherDisplay:10.37 W/m2 SCT
14:05 25.2 °C 14 °C 1028.7 hPa East 14.5 km/h 14.5 km/h 50% 0 mm WeatherDisplay:10.37 W/m2 SCT
14:10 25.4 °C 13.3 °C 1028.3 hPa East 14.5 km/h 14.5 km/h 47% 0 mm WeatherDisplay:10.37 W/m2 SCT
14:15 25.6 °C 13.7 °C 1028.3 hPa East 14.5 km/h 14.5 km/h 48% 0 mm WeatherDisplay:10.37 W/m2 SCT
14:20 25.6 °C 13.8 °C 1028 hPa East 14.5 km/h 14.5 km/h 48% 0 mm WeatherDisplay:10.37 W/m2 SCT
14:25 25.8 °C 13.6 °C 1028 hPa East 14.5 km/h 14.5 km/h 47% 0 mm WeatherDisplay:10.37 W/m2 SCT
14:30 25.8 °C 14 °C 1028 hPa East 14.5 km/h 14.5 km/h 48% 0 mm WeatherDisplay:10.37 W/m2 SCT
14:35 25.5 °C 13.3 °C 1028 hPa East 14.5 km/h 14.5 km/h 47% 0 mm WeatherDisplay:10.37 W/m2 SCT
14:40 25.2 °C 13.4 °C 1027.7 hPa East 14.5 km/h 14.5 km/h 48% 0 mm WeatherDisplay:10.37 W/m2 SCT
14:45 25.3 °C 13.8 °C 1027.7 hPa East 14.5 km/h 14.5 km/h 49% 0 mm WeatherDisplay:10.37 W/m2 SCT
14:50 25.7 °C 13.8 °C 1027.7 hPa East 14.5 km/h 14.5 km/h 48% 0 mm WeatherDisplay:10.37 W/m2 SCT
14:55 25.9 °C 14.1 °C 1027.3 hPa East 14.5 km/h 14.5 km/h 48% 0 mm WeatherDisplay:10.37 W/m2 SCT
15:00 25.9 °C 14.1 °C 1027.3 hPa East 14.5 km/h 14.5 km/h 48% 0 mm WeatherDisplay:10.37 W/m2 SCT
15:10 25.6 °C 13.7 °C 1027 hPa East 14.5 km/h 14.5 km/h 48% 0 mm WeatherDisplay:10.37 W/m2 SCT
15:15 25.4 °C 13.3 °C 1027 hPa East 12.9 km/h 14.5 km/h 47% 0 mm WeatherDisplay:10.37 W/m2 SCT
15:20 25.4 °C 13.6 °C 1027 hPa East 12.9 km/h 12.9 km/h 48% 0 mm WeatherDisplay:10.37 W/m2 SCT
15:25 25.3 °C 13.2 °C 1027 hPa East 12.9 km/h 12.9 km/h 47% 0 mm WeatherDisplay:10.37 W/m2 SCT
15:30 25.2 °C 13.7 °C 1027 hPa East 12.9 km/h 12.9 km/h 49% 0 mm WeatherDisplay:10.37 W/m2 SCT
15:35 25.1 °C 13.6 °C 1027 hPa East 12.9 km/h 12.9 km/h 49% 0 mm WeatherDisplay:10.37 W/m2 SCT
15:40 25 °C 13.2 °C 1026.6 hPa East 12.9 km/h 12.9 km/h 48% 0 mm WeatherDisplay:10.37 W/m2 SCT
15:45 24.9 °C 13.4 °C 1026.6 hPa East 12.9 km/h 12.9 km/h 49% 0 mm WeatherDisplay:10.37 W/m2 SCT
15:50 24.8 °C 13.3 °C 1026.6 hPa East 12.9 km/h 12.9 km/h 49% 0 mm WeatherDisplay:10.37 W/m2 SCT
15:55 24.8 °C 13.4 °C 1026.6 hPa East 12.9 km/h 12.9 km/h 49% 0 mm WeatherDisplay:10.37 W/m2 SCT
16:00 24.9 °C 13.7 °C 1026.6 hPa East 12.9 km/h 12.9 km/h 50% 0 mm WeatherDisplay:10.37 W/m2 SCT
16:05 24.9 °C 13.8 °C 1026.3 hPa East 12.9 km/h 12.9 km/h 50% 0 mm WeatherDisplay:10.37 W/m2 SCT
16:10 24.9 °C 13.2 °C 1026.3 hPa East 12.9 km/h 12.9 km/h 48% 0 mm WeatherDisplay:10.37 W/m2 SCT
16:15 25.1 °C 13.3 °C 1026.3 hPa East 12.9 km/h 12.9 km/h 48% 0 mm WeatherDisplay:10.37 W/m2 SCT
16:20 25.2 °C 14 °C 1026.3 hPa East 12.9 km/h 12.9 km/h 50% 0 mm WeatherDisplay:10.37 W/m2 SCT
16:25 25.2 °C 13.4 °C 1026.3 hPa East 12.9 km/h 12.9 km/h 48% 0 mm WeatherDisplay:10.37 W/m2 SCT
16:30 25.2 °C 13.1 °C 1026.3 hPa East 12.9 km/h 12.9 km/h 47% 0 mm WeatherDisplay:10.37 W/m2 SCT
16:35 25.2 °C 13.4 °C 1026.3 hPa East 12.9 km/h 12.9 km/h 48% 0 mm WeatherDisplay:10.37 W/m2 SCT
16:40 25.1 °C 13 °C 1026.3 hPa East 12.9 km/h 12.9 km/h 47% 0 mm WeatherDisplay:10.37 W/m2 SCT
16:45 25 °C 13.5 °C 1026.3 hPa East 12.9 km/h 12.9 km/h 49% 0 mm WeatherDisplay:10.37 W/m2 SCT
16:50 24.9 °C 13.4 °C 1026.3 hPa East 12.9 km/h 12.9 km/h 49% 0 mm WeatherDisplay:10.37 W/m2 SCT
17:00 24.8 °C 13.3 °C 1026.3 hPa East 12.9 km/h 12.9 km/h 49% 0 mm WeatherDisplay:10.37 W/m2 SCT
17:05 24.7 °C 13.6 °C 1026.3 hPa East 12.9 km/h 12.9 km/h 50% 0 mm WeatherDisplay:10.37 W/m2 SCT
17:10 24.7 °C 14.2 °C 1026.3 hPa East 12.9 km/h 12.9 km/h 52% 0 mm WeatherDisplay:10.37 W/m2 SCT
17:15 24.7 °C 13.6 °C 1026.3 hPa East 12.9 km/h 12.9 km/h 50% 0 mm WeatherDisplay:10.37 W/m2 FEW
17:20 24.6 °C 13.4 °C 1026.3 hPa East 12.9 km/h 12.9 km/h 50% 0 mm WeatherDisplay:10.37 W/m2 FEW
17:25 24.5 °C 13.4 °C 1026.3 hPa East 12.9 km/h 12.9 km/h 50% 0 mm WeatherDisplay:10.37 W/m2 FEW
17:30 24.4 °C 13.7 °C 1026.3 hPa East 12.9 km/h 12.9 km/h 51% 0 mm WeatherDisplay:10.37 W/m2 FEW
17:40 24.2 °C 14 °C 1026.3 hPa East 12.9 km/h 12.9 km/h 53% 0 mm WeatherDisplay:10.37 W/m2 FEW
17:50 24.1 °C 13.8 °C 1026.3 hPa East 12.9 km/h 12.9 km/h 53% 0 mm WeatherDisplay:10.37 W/m2 FEW
17:55 23.9 °C 14.4 °C 1026.3 hPa East 12.9 km/h 12.9 km/h 55% 0 mm WeatherDisplay:10.37 W/m2 FEW
18:00 23.8 °C 14.6 °C 1026 hPa East 12.9 km/h 12.9 km/h 56% 0 mm WeatherDisplay:10.37 W/m2 FEW
18:05 23.6 °C 14.6 °C 1026 hPa East 12.9 km/h 12.9 km/h 57% 0 mm WeatherDisplay:10.37 W/m2 FEW
18:10 23.4 °C 14.7 °C 1026 hPa East 12.9 km/h 12.9 km/h 58% 0 mm WeatherDisplay:10.37 W/m2 FEW
18:20 23.1 °C 14.1 °C 1026.3 hPa ENE 8 km/h 8 km/h 57% 0 mm WeatherDisplay:10.37 W/m2 FEW
18:25 22.9 °C 14.5 °C 1026.3 hPa ENE 8 km/h 8 km/h 59% 0 mm WeatherDisplay:10.37 W/m2 FEW
18:30 22.8 °C 14.6 °C 1026.3 hPa ENE 8 km/h 8 km/h 60% 0 mm WeatherDisplay:10.37 W/m2 FEW
18:35 22.6 °C 14.4 °C 1026 hPa ENE 8 km/h 8 km/h 60% 0 mm WeatherDisplay:10.37 W/m2 FEW
18:40 22.5 °C 14.3 °C 1026.3 hPa ENE 8 km/h 8 km/h 60% 0 mm WeatherDisplay:10.37 W/m2 FEW
18:45 22.4 °C 14.5 °C 1026.3 hPa ENE 8 km/h 8 km/h 61% 0 mm WeatherDisplay:10.37 W/m2 FEW
18:50 22.2 °C 14.3 °C 1026.3 hPa ENE 8 km/h 8 km/h 61% 0 mm WeatherDisplay:10.37 W/m2 FEW
18:55 22.1 °C 14.2 °C 1026.3 hPa ENE 8 km/h 8 km/h 61% 0 mm WeatherDisplay:10.37 W/m2 FEW
19:00 21.9 °C 14.3 °C 1026.3 hPa ENE 8 km/h 8 km/h 62% 0 mm WeatherDisplay:10.37 W/m2 FEW
19:05 21.8 °C 14.4 °C 1026.3 hPa ENE 8 km/h 8 km/h 63% 0 mm WeatherDisplay:10.37 W/m2 FEW
19:10 21.7 °C 14.6 °C 1026 hPa ENE 8 km/h 8 km/h 64% 0 mm WeatherDisplay:10.37 W/m2 FEW
19:15 21.6 °C 14.4 °C 1026 hPa ENE 4.8 km/h 8 km/h 64% 0 mm WeatherDisplay:10.37 W/m2 CLR
19:20 21.3 °C 14.4 °C 1026 hPa ENE 4.8 km/h 4.8 km/h 65% 0 mm WeatherDisplay:10.37 W/m2 CLR
19:25 21 °C 14.6 °C 1026 hPa ENE 4.8 km/h 4.8 km/h 67% 0 mm WeatherDisplay:10.37 W/m2 CLR
19:30 20.8 °C 14.4 °C 1026 hPa ENE 4.8 km/h 4.8 km/h 67% 0 mm WeatherDisplay:10.37 W/m2 CLR
19:35 20.7 °C 14.3 °C 1026.3 hPa ENE 4.8 km/h 4.8 km/h 67% 0 mm WeatherDisplay:10.37 W/m2 CLR
19:40 20.6 °C 14.2 °C 1026.3 hPa ENE 4.8 km/h 4.8 km/h 67% 0 mm WeatherDisplay:10.37 W/m2 CLR
19:45 20.4 °C 14.3 °C 1026.3 hPa ENE 4.8 km/h 4.8 km/h 68% 0 mm WeatherDisplay:10.37 W/m2 CLR
19:50 20.3 °C 14.2 °C 1026.3 hPa ENE 4.8 km/h 4.8 km/h 68% 0 mm WeatherDisplay:10.37 W/m2 CLR
19:55 20.2 °C 14.1 °C 1026.3 hPa ENE 4.8 km/h 4.8 km/h 68% 0 mm WeatherDisplay:10.37 W/m2 CLR
20:00 20.1 °C 14.2 °C 1026.3 hPa ENE 4.8 km/h 4.8 km/h 69% 0 mm WeatherDisplay:10.37 W/m2 CLR
20:05 19.9 °C 14.5 °C 1026.3 hPa ENE 4.8 km/h 4.8 km/h 71% 0 mm WeatherDisplay:10.37 W/m2 CLR
20:10 19.7 °C 14.3 °C 1026.3 hPa ENE 4.8 km/h 4.8 km/h 71% 0 mm WeatherDisplay:10.37 W/m2 CLR
20:15 19.6 °C 14.3 °C 1026.3 hPa ENE 4.8 km/h 4.8 km/h 72% 0 mm WeatherDisplay:10.37 W/m2 FEW
20:20 19.3 °C 14.3 °C 1026.3 hPa ENE 4.8 km/h 4.8 km/h 73% 0 mm WeatherDisplay:10.37 W/m2 FEW
20:25 19.1 °C 14.3 °C 1026.3 hPa ENE 4.8 km/h 4.8 km/h 74% 0 mm WeatherDisplay:10.37 W/m2 FEW
20:30 18.9 °C 14.2 °C 1026.3 hPa ENE 4.8 km/h 4.8 km/h 74% 0 mm WeatherDisplay:10.37 W/m2 FEW
20:35 18.8 °C 14 °C 1026.3 hPa ENE 4.8 km/h 4.8 km/h 74% 0 mm WeatherDisplay:10.37 W/m2 FEW
20:40 18.6 °C 14.1 °C 1026.3 hPa ENE 4.8 km/h 4.8 km/h 75% 0 mm WeatherDisplay:10.37 W/m2 FEW
20:45 18.5 °C 14 °C 1026.3 hPa ENE 4.8 km/h 4.8 km/h 75% 0 mm WeatherDisplay:10.37 W/m2 FEW
20:50 18.4 °C 13.7 °C 1026.3 hPa ENE 4.8 km/h 4.8 km/h 74% 0 mm WeatherDisplay:10.37 W/m2 FEW
20:55 18.4 °C 13.9 °C 1026.3 hPa ENE 4.8 km/h 4.8 km/h 75% 0 mm WeatherDisplay:10.37 W/m2 FEW
21:00 18.3 °C 13.4 °C 1026.3 hPa ENE 4.8 km/h 4.8 km/h 73% 0 mm WeatherDisplay:10.37 W/m2 FEW
21:05 18.4 °C 13.5 °C 1026.6 hPa ENE 4.8 km/h 4.8 km/h 73% 0 mm WeatherDisplay:10.37 W/m2 FEW
21:10 18.4 °C 13.7 °C 1026.6 hPa ENE 4.8 km/h 4.8 km/h 74% 0 mm WeatherDisplay:10.37 W/m2 FEW
21:15 18.3 °C 14 °C 1026.6 hPa NE 4.8 km/h 4.8 km/h 76% 0 mm WeatherDisplay:10.37 W/m2 CLR
21:20 18.1 °C 14 °C 1026.6 hPa NNE 4.8 km/h 4.8 km/h 77% 0 mm WeatherDisplay:10.37 W/m2 CLR
21:25 18 °C 13.9 °C 1026.6 hPa NNE 4.8 km/h 4.8 km/h 77% 0 mm WeatherDisplay:10.37 W/m2 CLR
21:30 17.8 °C 13.7 °C 1026.6 hPa NNE 4.8 km/h 4.8 km/h 77% 0 mm WeatherDisplay:10.37 W/m2 CLR
21:35 17.7 °C 13.8 °C 1026.6 hPa NNE 4.8 km/h 4.8 km/h 78% 0 mm WeatherDisplay:10.37 W/m2 CLR
21:40 17.6 °C 13.7 °C 1026.6 hPa NNE 4.8 km/h 4.8 km/h 78% 0 mm WeatherDisplay:10.37 W/m2 CLR
21:45 17.4 °C 13.8 °C 1026.6 hPa NNE 4.8 km/h 4.8 km/h 79% 0 mm WeatherDisplay:10.37 W/m2 CLR
21:50 17.3 °C 13.8 °C 1026.6 hPa NNE 4.8 km/h 4.8 km/h 80% 0 mm WeatherDisplay:10.37 W/m2 CLR
21:55 17.2 °C 13.7 °C 1026.6 hPa NNE 4.8 km/h 4.8 km/h 80% 0 mm WeatherDisplay:10.37 W/m2 CLR
22:00 17.1 °C 13.8 °C 1026.6 hPa NNE 4.8 km/h 4.8 km/h 81% 0 mm WeatherDisplay:10.37 W/m2 CLR
22:05 16.9 °C 13.7 °C 1026.6 hPa NNE 4.8 km/h 4.8 km/h 81% 0 mm WeatherDisplay:10.37 W/m2 CLR
22:15 16.7 °C 13.7 °C 1026.6 hPa NNE 4.8 km/h 4.8 km/h 82% 0 mm WeatherDisplay:10.37 W/m2 CLR
22:20 16.7 °C 13.6 °C 1026.6 hPa NNE 4.8 km/h 4.8 km/h 82% 0 mm WeatherDisplay:10.37 W/m2 CLR
22:25 16.6 °C 13.4 °C 1027 hPa NNE 4.8 km/h 4.8 km/h 82% 0 mm WeatherDisplay:10.37 W/m2 CLR
22:30 16.5 °C 13.6 °C 1027 hPa NNE 4.8 km/h 4.8 km/h 83% 0 mm WeatherDisplay:10.37 W/m2 CLR
22:35 16.4 °C 13.6 °C 1026.6 hPa NNE 4.8 km/h 4.8 km/h 83% 0 mm WeatherDisplay:10.37 W/m2 CLR
22:40 16.4 °C 13.3 °C 1027 hPa NNE 4.8 km/h 4.8 km/h 82% 0 mm WeatherDisplay:10.37 W/m2 CLR
22:45 16.4 °C 13.5 °C 1027 hPa NNE 4.8 km/h 4.8 km/h 83% 0 mm WeatherDisplay:10.37 W/m2 CLR
22:50 16.3 °C 13.4 °C 1027 hPa NNE 4.8 km/h 4.8 km/h 83% 0 mm WeatherDisplay:10.37 W/m2 CLR
22:55 16.3 °C 13.4 °C 1027 hPa NNE 4.8 km/h 4.8 km/h 83% 0 mm WeatherDisplay:10.37 W/m2 CLR
23:00 16.3 °C 13.4 °C 1027 hPa NNE 4.8 km/h 4.8 km/h 83% 0 mm WeatherDisplay:10.37 W/m2 CLR
23:05 16.2 °C 13.2 °C 1027 hPa NNE 4.8 km/h 4.8 km/h 82% 0 mm WeatherDisplay:10.37 W/m2 CLR
23:25 15.9 °C 13.1 °C 1026.6 hPa NNW 4.8 km/h 4.8 km/h 83% 0 mm WeatherDisplay:10.37 W/m2 CLR
23:35 15.8 °C 13.1 °C 1027 hPa Calm     84% 0 mm WeatherDisplay:10.37 W/m2 CLR
23:45 15.6 °C 12.9 °C 1026.6 hPa Calm     84% 0 mm WeatherDisplay:10.37 W/m2 CLR
23:50 15.6 °C 13 °C 1026.6 hPa Calm     85% 0 mm WeatherDisplay:10.37 W/m2 CLR
23:55 15.5 °C 13 °C 1026.6 hPa Calm     85% 0 mm WeatherDisplay:10.37 W/m2 CLR
Piedmont Bend
Compliments of Weather Underground - 4 mb